Spokane, WA

8:33 AM PST on January 18, 2017 (GMT -0800)
Spokane International

Weather History for KGEG - December, 2012

Change the Weather History Date:

Sunday, December 2, 2012

  Actual Average Record
Temperature  
Mean Temperature 42 °F 30 °F  
Max Temperature 46 °F 34 °F 56 °F (1927)
Min Temperature 38 °F 25 °F 4 °F (1919)
Degree Days  
Heating Degree Days 23 35  
Month to date heating degree days 45 70  
Since 1 July heating degree days 1430 1737  
Cooling Degree Days 0 0  
Month to date cooling degree days 0 0  
Year to date cooling degree days 535 450  
Moisture  
Dew Point 38 °F    
Average Humidity 80    
Maximum Humidity 100    
Minimum Humidity 60    
Precipitation  
Precipitation 0.37 in 0.08 in 0.97 in (1941)
Month to date precipitation 0.43 0.17  
Year to date precipitation 19.17 14.43  
Snow  
Snow 0.00 in 0.40 in 6.00 in (1922)
Month to date snowfall 0.0 0.8  
Since 1 July snowfall 5.9 8.3  
Snow Depth 0.00 in    
Sea Level Pressure  
Sea Level Pressure 29.42 in    
Wind  
Wind Speed 18 mph (South)    
Max Wind Speed 37 mph    
Max Gust Speed 44 mph    
Visibility 7 miles    
Events Rain    
T = Trace of Precipitation, MM = Missing Value Source: NWS Daily Summary

Daily Weather History Graph

Daily Weather History Graph

Search for Another Location

Airport or City:

Trip Planner

Search our weather history database for the weather conditions in past years. The results will help you decide how hot, cold, wet, or windy it might be!

Date:

Astronomy

Dec. 02, 2012 Rise Set
Actual Time 7:19 AM PST 4:00 PM PST
Civil Twilight 6:44 AM PST 4:35 PM PST
Nautical Twilight 6:05 AM PST 5:14 PM PST
Astronomical Twilight 5:28 AM PST 5:51 PM PST
Moon 7:59 PM PST (12/2) 10:05 AM PST (12/2)
Length of Visible Light 9h 51m
Length of Day
8h 40m
Waning Gibbous, 85% of the Moon is Illuminated
Dec 2
Waning Gibbous
Dec 6
Last Quarter
Dec 13
New
Dec 19
First Quarter
Dec 28
Full

Hourly Weather History & Observations

Time (PST) Temp. Windchill Dew Point Humidity Pressure Visibility Wind Dir Wind Speed Gust Speed Precip Events Conditions
12:53 AM 41.0 °F 37.1 °F 39.0 °F 93% 29.49 in 7.0 mi SE 5.8 mph - 0.01 in Rain Light Rain
1:53 AM 39.9 °F 32.5 °F 39.0 °F 97% 29.42 in 5.0 mi SE 12.7 mph - 0.02 in Rain Light Rain
2:53 AM 39.0 °F 31.4 °F 39.0 °F 100% 29.35 in 5.0 mi ESE 12.7 mph 19.6 mph 0.04 in Rain Light Rain
3:53 AM 39.0 °F 32.8 °F 39.0 °F 100% 29.31 in 9.0 mi East 9.2 mph - 0.04 in Rain Light Rain
4:53 AM 39.0 °F 34.8 °F 39.0 °F 100% 29.26 in 5.0 mi ENE 5.8 mph - 0.10 in Rain Rain
5:22 AM 39.2 °F 33.6 °F 39.2 °F 100% 29.21 in 4.0 mi NE 8.1 mph - 0.03 in Rain Light Rain
5:28 AM 39.2 °F 34.2 °F 39.2 °F 100% 29.21 in 1.0 mi ENE 6.9 mph - 0.04 in Rain Light Rain
5:53 AM 39.0 °F 34.8 °F 39.0 °F 100% 29.21 in 1.0 mi ENE 5.8 mph - 0.06 in Rain Light Rain
6:15 AM 39.2 °F 35.9 °F 39.2 °F 100% 29.18 in 3.0 mi ESE 4.6 mph - 0.03 in Rain Light Rain
6:24 AM 39.2 °F 35.9 °F 39.2 °F 100% 29.19 in 3.0 mi SE 4.6 mph - 0.04 in Rain Light Rain
6:44 AM 39.2 °F 32.0 °F 39.2 °F 100% 29.18 in 3.0 mi SE 11.5 mph - 0.07 in Rain Light Rain
6:53 AM 39.9 °F 33.4 °F 39.9 °F 100% 29.21 in 5.0 mi SSE 10.4 mph - 0.08 in Rain Light Rain
7:45 AM 44.6 °F 36.9 °F 42.8 °F 93% 29.17 in 5.0 mi SSW 18.4 mph 25.3 mph 0.01 in Rain Light Rain
7:53 AM 45.0 °F 36.9 °F 44.1 °F 97% 29.18 in 3.0 mi SSW 20.7 mph 31.1 mph 0.01 in Rain Light Rain
8:15 AM 44.6 °F 35.9 °F 42.8 °F 93% 29.18 in 2.0 mi SW 23.0 mph - 0.01 in Rain Light Rain
8:45 AM 42.8 °F 33.3 °F 42.8 °F 100% 29.20 in 3.0 mi SW 24.2 mph 29.9 mph 0.01 in Rain Light Rain
8:53 AM 43.0 °F 33.8 °F 42.1 °F 97% 29.22 in 6.0 mi SW 23.0 mph 29.9 mph 0.01 in Rain Light Rain
9:46 AM 42.8 °F 35.4 °F 41.0 °F 93% 29.26 in 10.0 mi SW 15.0 mph 27.6 mph N/A   Overcast
9:53 AM 42.1 °F 34.2 °F 41.0 °F 96% 29.29 in 10.0 mi SW 16.1 mph - N/A   Overcast
10:53 AM 42.1 °F 32.8 °F 39.0 °F 89% 29.33 in 7.0 mi SW 21.9 mph 29.9 mph 0.00 in Rain Light Rain
11:53 AM 43.0 °F 34.0 °F 39.9 °F 89% 29.37 in 10.0 mi SW 21.9 mph - 0.00 in   Mostly Cloudy
12:44 PM 44.6 °F 35.7 °F 39.2 °F 81% 29.39 in 10.0 mi WSW 24.2 mph 33.4 mph N/A   Mostly Cloudy
12:53 PM 45.0 °F 35.4 °F 37.9 °F 76% 29.42 in 10.0 mi SW 28.8 mph 36.8 mph N/A   Mostly Cloudy
1:53 PM 46.0 °F 36.9 °F 34.0 °F 63% 29.47 in 10.0 mi WSW 28.8 mph 39.1 mph N/A   Scattered Clouds
2:53 PM 44.1 °F 34.4 °F 36.0 °F 73% 29.53 in 10.0 mi SW 27.6 mph 33.4 mph N/A   Scattered Clouds
3:53 PM 43.0 °F 35.1 °F 34.0 °F 71% 29.60 in 10.0 mi SSW 17.3 mph 28.8 mph N/A   Scattered Clouds
4:53 PM 41.0 °F 33.1 °F 34.0 °F 76% 29.65 in 10.0 mi SSW 15.0 mph - N/A   Scattered Clouds
5:53 PM 39.9 °F 30.5 °F 32.0 °F 73% 29.69 in 10.0 mi SSW 19.6 mph - N/A   Scattered Clouds
6:53 PM 39.9 °F 30.2 °F 32.0 °F 73% 29.71 in 10.0 mi SSW 20.7 mph 27.6 mph N/A   Clear
7:53 PM 39.0 °F 29.3 °F 32.0 °F 76% 29.73 in 10.0 mi SSW 19.6 mph 26.5 mph N/A   Partly Cloudy
8:53 PM 39.0 °F 30.6 °F 32.0 °F 76% 29.75 in 10.0 mi SSW 15.0 mph 21.9 mph N/A   Scattered Clouds
9:53 PM 39.0 °F 28.8 °F 32.0 °F 76% 29.77 in 10.0 mi SSW 21.9 mph 29.9 mph N/A   Scattered Clouds
10:53 PM 39.0 °F 28.5 °F 33.1 °F 79% 29.80 in 10.0 mi SW 23.0 mph 29.9 mph N/A   Mostly Cloudy
11:53 PM 39.9 °F 30.5 °F 33.1 °F 77% 29.83 in 10.0 mi SSW 19.6 mph 27.6 mph N/A   Overcast